Time,TemperatureF,DewpointF,PressureIn,WindDirection,WindDirectionDegrees,WindSpeedMPH,WindSpeedGustMPH,Humidity,HourlyPrecipIn,Conditions,Clouds,dailyrainin,SoftwareType,DateUTC
2013-03-03 00:11:00,23.9,20.3,29.61,West,270,2.7,-999.0,86,-99.99,,,0.00,Acu-Link.com,2013-03-03 05:11:00,
2013-03-03 00:26:00,23.7,20.1,29.61,South,180,0.0,-999.0,86,-99.99,,,0.00,Acu-Link.com,2013-03-03 05:26:00,
2013-03-03 00:42:00,23.7,20.1,29.61,SW,225,2.7,-999.0,86,-99.99,,,0.00,Acu-Link.com,2013-03-03 05:42:00,
2013-03-03 00:57:00,23.5,19.9,29.61,South,180,1.1,-999.0,86,-99.99,,,0.00,Acu-Link.com,2013-03-03 05:57:00,
2013-03-03 01:12:00,23.4,19.8,29.60,WNW,292,2.2,-999.0,86,-99.99,,,0.00,Acu-Link.com,2013-03-03 06:12:00,
2013-03-03 01:27:00,23.2,19.6,29.60,ESE,112,2.2,-999.0,86,-99.99,,,0.00,Acu-Link.com,2013-03-03 06:27:00,
2013-03-03 01:43:00,23.0,19.4,29.60,ESE,112,0.0,-999.0,86,-99.99,,,0.00,Acu-Link.com,2013-03-03 06:43:00,
2013-03-03 01:58:00,23.0,19.4,29.59,North,0,2.2,-999.0,86,-99.99,,,0.00,Acu-Link.com,2013-03-03 06:58:00,
2013-03-03 02:14:00,23.0,19.4,29.59,ESE,112,0.0,-999.0,86,-99.99,,,0.00,Acu-Link.com,2013-03-03 07:14:00,
2013-03-03 02:29:00,22.8,19.3,29.59,West,270,1.1,-999.0,86,-99.99,,,0.00,Acu-Link.com,2013-03-03 07:29:00,
2013-03-03 02:44:00,22.8,19.3,29.58,WNW,292,1.7,-999.0,86,-99.99,,,0.00,Acu-Link.com,2013-03-03 07:44:00,
2013-03-03 02:59:00,22.8,19.3,29.58,NNW,337,1.7,-999.0,86,-99.99,,,0.00,Acu-Link.com,2013-03-03 07:59:00,
2013-03-03 03:14:00,22.6,19.1,29.58,West,270,1.1,-999.0,86,-99.99,,,0.00,Acu-Link.com,2013-03-03 08:14:00,
2013-03-03 03:30:00,22.5,19.0,29.58,SSW,202,1.7,-999.0,86,-99.99,,,0.00,Acu-Link.com,2013-03-03 08:30:00,
2013-03-03 03:45:00,22.5,19.0,29.58,WSW,247,1.1,-999.0,86,-99.99,,,0.00,Acu-Link.com,2013-03-03 08:45:00,
2013-03-03 04:00:00,22.3,19.0,29.58,NNW,337,1.1,-999.0,87,-99.99,,,0.00,Acu-Link.com,2013-03-03 09:00:00,
2013-03-03 04:18:00,22.3,19.0,29.58,WSW,247,1.7,-999.0,87,-99.99,,,0.00,Acu-Link.com,2013-03-03 09:18:00,
2013-03-03 04:33:00,22.3,19.0,29.58,ENE,67,0.0,-999.0,87,-99.99,,,0.00,Acu-Link.com,2013-03-03 09:33:00,
2013-03-03 04:48:00,22.1,18.8,29.58,WNW,292,0.0,-999.0,87,-99.99,,,0.00,Acu-Link.com,2013-03-03 09:48:00,
2013-03-03 05:04:00,22.1,18.8,29.59,WNW,292,0.0,-999.0,87,-99.99,,,0.00,Acu-Link.com,2013-03-03 10:04:00,
2013-03-03 05:19:00,22.1,18.8,29.58,ESE,112,0.0,-999.0,87,-99.99,,,0.00,Acu-Link.com,2013-03-03 10:19:00,
2013-03-03 05:34:00,22.1,18.8,29.58,WSW,247,0.0,-999.0,87,-99.99,,,0.00,Acu-Link.com,2013-03-03 10:34:00,
2013-03-03 05:49:00,22.1,18.8,29.58,SW,225,1.7,-999.0,87,-99.99,,,0.00,Acu-Link.com,2013-03-03 10:49:00,
2013-03-03 06:05:00,22.1,18.8,29.58,West,270,0.0,-999.0,87,-99.99,,,0.00,Acu-Link.com,2013-03-03 11:05:00,
2013-03-03 06:20:00,22.1,18.8,29.59,SSW,202,2.7,-999.0,87,-99.99,,,0.00,Acu-Link.com,2013-03-03 11:20:00,
2013-03-03 06:35:00,22.1,18.8,29.59,South,180,0.0,-999.0,87,-99.99,,,0.00,Acu-Link.com,2013-03-03 11:35:00,
2013-03-03 06:51:00,22.5,19.2,29.59,NE,45,0.0,-999.0,87,-99.99,,,0.00,Acu-Link.com,2013-03-03 11:51:00,
2013-03-03 07:06:00,23.0,19.7,29.59,West,270,0.0,-999.0,87,-99.99,,,0.00,Acu-Link.com,2013-03-03 12:06:00,
2013-03-03 07:21:00,23.5,19.9,29.59,WSW,247,1.1,-999.0,86,-99.99,,,0.00,Acu-Link.com,2013-03-03 12:21:00,
2013-03-03 07:36:00,24.1,20.3,29.59,WSW,247,1.7,-999.0,85,-99.99,,,0.00,Acu-Link.com,2013-03-03 12:36:00,
2013-03-03 07:52:00,24.8,20.7,29.59,ENE,67,0.0,-999.0,84,-99.99,,,0.00,Acu-Link.com,2013-03-03 12:52:00,
2013-03-03 08:07:00,25.7,21.3,29.60,West,270,0.0,-999.0,83,-99.99,,,0.00,Acu-Link.com,2013-03-03 13:07:00,
2013-03-03 08:22:00,25.9,21.2,29.59,ENE,67,1.7,-999.0,82,-99.99,,,0.00,Acu-Link.com,2013-03-03 13:22:00,
2013-03-03 08:38:00,26.6,21.6,29.59,SW,225,1.1,-999.0,81,-99.99,,,0.00,Acu-Link.com,2013-03-03 13:38:00,
2013-03-03 08:53:00,26.8,21.8,29.59,West,270,0.0,-999.0,81,-99.99,,,0.00,Acu-Link.com,2013-03-03 13:53:00,
2013-03-03 09:08:00,28.4,23.0,29.59,South,180,0.0,-999.0,80,-99.99,,,0.00,Acu-Link.com,2013-03-03 14:08:00,
2013-03-03 09:23:00,28.2,22.5,29.59,NNW,337,2.2,-999.0,79,-99.99,,,0.00,Acu-Link.com,2013-03-03 14:23:00,
2013-03-03 09:39:00,28.9,22.3,29.59,NNE,22,1.7,-999.0,76,-99.99,,,0.00,Acu-Link.com,2013-03-03 14:39:00,
2013-03-03 09:54:00,29.8,23.2,29.58,SSW,202,1.7,-999.0,76,-99.99,,,0.00,Acu-Link.com,2013-03-03 14:54:00,
2013-03-03 10:09:00,30.6,23.6,29.58,NNW,337,1.7,-999.0,75,-99.99,,,0.00,Acu-Link.com,2013-03-03 15:09:00,
2013-03-03 10:24:00,30.6,23.3,29.57,South,180,0.0,-999.0,74,-99.99,,,0.00,Acu-Link.com,2013-03-03 15:24:00,
2013-03-03 10:40:00,32.9,24.9,29.57,SE,135,1.7,-999.0,72,-99.99,,,0.00,Acu-Link.com,2013-03-03 15:40:00,
2013-03-03 10:55:00,34.5,25.7,29.56,West,270,2.2,-999.0,70,-99.99,,,0.00,Acu-Link.com,2013-03-03 15:55:00,
2013-03-03 11:10:00,34.0,24.9,29.57,NNE,22,2.7,-999.0,69,-99.99,,,0.00,Acu-Link.com,2013-03-03 16:10:00,
2013-03-03 11:25:00,32.4,23.7,29.57,West,270,2.7,-999.0,70,-99.99,,,0.00,Acu-Link.com,2013-03-03 16:25:00,
2013-03-03 11:41:00,32.9,24.9,29.57,North,0,2.2,-999.0,72,-99.99,,,0.00,Acu-Link.com,2013-03-03 16:41:00,
2013-03-03 11:56:00,32.7,24.7,29.56,NNW,337,1.7,-999.0,72,-99.99,,,0.00,Acu-Link.com,2013-03-03 16:56:00,
2013-03-03 12:11:00,33.6,25.6,29.56,West,270,2.7,-999.0,72,-99.99,,,0.00,Acu-Link.com,2013-03-03 17:11:00,
2013-03-03 12:26:00,33.4,25.0,29.56,South,180,3.7,-999.0,71,-99.99,,,0.00,Acu-Link.com,2013-03-03 17:26:00,
2013-03-03 12:42:00,33.3,25.3,29.55,West,270,2.7,-999.0,72,-99.99,,,0.00,Acu-Link.com,2013-03-03 17:42:00,
2013-03-03 12:57:00,34.0,25.3,29.54,SE,135,1.7,-999.0,70,-99.99,,,0.00,Acu-Link.com,2013-03-03 17:57:00,
2013-03-03 13:12:00,33.1,24.7,29.54,WNW,292,1.7,-999.0,71,-99.99,,,0.01,Acu-Link.com,2013-03-03 18:12:00,
2013-03-03 13:28:00,33.3,25.3,29.54,SE,135,1.1,-999.0,72,-99.99,,,0.01,Acu-Link.com,2013-03-03 18:28:00,
2013-03-03 13:43:00,32.9,24.9,29.53,SSE,157,2.7,-999.0,72,-99.99,,,0.02,Acu-Link.com,2013-03-03 18:43:00,
2013-03-03 13:58:00,35.1,26.3,29.53,SSW,202,2.7,-999.0,70,-99.99,,,0.03,Acu-Link.com,2013-03-03 18:58:00,
2013-03-03 14:13:00,34.9,26.1,29.53,SSE,157,2.7,-999.0,70,-99.99,,,0.03,Acu-Link.com,2013-03-03 19:13:00,
2013-03-03 14:28:00,34.7,25.9,29.53,North,0,1.1,-999.0,70,-99.99,,,0.03,Acu-Link.com,2013-03-03 19:28:00,
2013-03-03 14:44:00,35.4,26.6,29.53,NNE,22,0.0,-999.0,70,-99.99,,,0.03,Acu-Link.com,2013-03-03 19:44:00,
2013-03-03 14:59:00,34.3,25.6,29.53,WSW,247,1.1,-999.0,70,-99.99,,,0.03,Acu-Link.com,2013-03-03 19:59:00,
2013-03-03 15:14:00,34.2,25.5,29.53,West,270,1.7,-999.0,70,-99.99,,,0.03,Acu-Link.com,2013-03-03 20:14:00,
2013-03-03 15:29:00,35.4,26.6,29.53,NE,45,1.7,-999.0,70,-99.99,,,0.03,Acu-Link.com,2013-03-03 20:29:00,
2013-03-03 15:45:00,34.9,25.8,29.53,South,180,4.7,-999.0,69,-99.99,,,0.03,Acu-Link.com,2013-03-03 20:45:00,
2013-03-03 16:00:00,35.1,26.3,29.53,West,270,2.7,-999.0,70,-99.99,,,0.03,Acu-Link.com,2013-03-03 21:00:00,
2013-03-03 16:15:00,34.2,25.8,29.53,SSW,202,2.7,-999.0,71,-99.99,,,0.03,Acu-Link.com,2013-03-03 21:15:00,
2013-03-03 16:31:00,32.9,25.2,29.53,SW,225,0.0,-999.0,73,-99.99,,,0.03,Acu-Link.com,2013-03-03 21:31:00,
2013-03-03 16:46:00,32.2,25.2,29.54,West,270,2.2,-999.0,75,-99.99,,,0.03,Acu-Link.com,2013-03-03 21:46:00,
2013-03-03 17:01:00,31.6,24.9,29.54,SW,225,3.2,-999.0,76,-99.99,,,0.03,Acu-Link.com,2013-03-03 22:01:00,
2013-03-03 17:16:00,31.1,25.1,29.54,WSW,247,1.7,-999.0,78,-99.99,,,0.03,Acu-Link.com,2013-03-03 22:16:00,
2013-03-03 17:31:00,30.0,24.9,29.54,South,180,1.7,-999.0,81,-99.99,,,0.03,Acu-Link.com,2013-03-03 22:31:00,
2013-03-03 17:47:00,29.7,24.9,29.54,West,270,2.2,-999.0,82,-99.99,,,0.03,Acu-Link.com,2013-03-03 22:47:00,
2013-03-03 18:02:00,29.5,24.7,29.55,WNW,292,2.2,-999.0,82,-99.99,,,0.03,Acu-Link.com,2013-03-03 23:02:00,
2013-03-03 18:17:00,29.1,24.0,29.56,ESE,112,1.1,-999.0,81,-99.99,,,0.03,Acu-Link.com,2013-03-03 23:17:00,
2013-03-03 18:33:00,28.9,23.8,29.56,WSW,247,1.7,-999.0,81,-99.99,,,0.03,Acu-Link.com,2013-03-03 23:33:00,
2013-03-03 18:48:00,28.8,23.4,29.57,South,180,1.7,-999.0,80,-99.99,,,0.03,Acu-Link.com,2013-03-03 23:48:00,
2013-03-03 19:03:00,28.6,22.9,29.57,ESE,112,2.2,-999.0,79,-99.99,,,0.03,Acu-Link.com,2013-03-04 00:03:00,
2013-03-03 19:19:00,28.4,22.7,29.57,SSE,157,1.7,-999.0,79,-99.99,,,0.03,Acu-Link.com,2013-03-04 00:19:00,
2013-03-03 19:34:00,28.2,22.5,29.57,NE,45,2.2,-999.0,79,-99.99,,,0.03,Acu-Link.com,2013-03-04 00:34:00,
2013-03-03 19:49:00,28.0,22.3,29.57,SSW,202,3.7,-999.0,79,-99.99,,,0.03,Acu-Link.com,2013-03-04 00:49:00,
2013-03-03 20:04:00,27.9,22.2,29.57,ESE,112,1.7,-999.0,79,-99.99,,,0.03,Acu-Link.com,2013-03-04 01:04:00,
2013-03-03 20:19:00,27.5,21.9,29.57,SSW,202,2.7,-999.0,79,-99.99,,,0.03,Acu-Link.com,2013-03-04 01:19:00,
2013-03-03 20:34:00,27.5,21.9,29.57,South,180,3.7,-999.0,79,-99.99,,,0.03,Acu-Link.com,2013-03-04 01:34:00,
2013-03-03 20:49:00,27.5,22.2,29.57,SSW,202,2.7,-999.0,80,-99.99,,,0.03,Acu-Link.com,2013-03-04 01:49:00,
2013-03-03 21:05:00,27.5,22.2,29.57,East,90,1.1,-999.0,80,-99.99,,,0.03,Acu-Link.com,2013-03-04 02:05:00,
2013-03-03 21:20:00,27.3,22.0,29.57,SW,225,2.2,-999.0,80,-99.99,,,0.03,Acu-Link.com,2013-03-04 02:20:00,
2013-03-03 21:35:00,27.3,22.3,29.57,SE,135,1.1,-999.0,81,-99.99,,,0.03,Acu-Link.com,2013-03-04 02:35:00,
2013-03-03 21:51:00,27.3,22.0,29.57,SW,225,5.3,-999.0,80,-99.99,,,0.03,Acu-Link.com,2013-03-04 02:51:00,
2013-03-03 22:06:00,27.3,22.0,29.57,SW,225,2.2,-999.0,80,-99.99,,,0.03,Acu-Link.com,2013-03-04 03:06:00,
2013-03-03 22:21:00,27.1,21.8,29.57,South,180,2.7,-999.0,80,-99.99,,,0.03,Acu-Link.com,2013-03-04 03:21:00,
2013-03-03 22:36:00,27.0,21.7,29.57,ENE,67,0.0,-999.0,80,-99.99,,,0.03,Acu-Link.com,2013-03-04 03:36:00,
2013-03-03 22:51:00,26.8,21.5,29.58,NW,315,1.7,-999.0,80,-99.99,,,0.03,Acu-Link.com,2013-03-04 03:51:00,
2013-03-03 23:07:00,26.6,21.6,29.57,South,180,2.2,-999.0,81,-99.99,,,0.03,Acu-Link.com,2013-03-04 04:07:00,
2013-03-03 23:22:00,26.6,21.6,29.57,SW,225,2.7,-999.0,81,-99.99,,,0.03,Acu-Link.com,2013-03-04 04:22:00,
2013-03-03 23:37:00,26.4,21.4,29.57,WSW,247,1.7,-999.0,81,-99.99,,,0.03,Acu-Link.com,2013-03-04 04:37:00,
2013-03-03 23:53:00,26.2,21.2,29.58,South,180,0.0,-999.0,81,-99.99,,,0.03,Acu-Link.com,2013-03-04 04:53:00,